[[{"header":{"parameterUnit":"m.s-1","parameterCategory":1,"la1":30.2991,"la2":30.254,"lo1":-89.0895,"lo2":-89.0444,"dy":0.0017,"dx":0.0017,"nx":28,"ny":28,"refTime":"2025-09-07T09:00:00:Z","depth":0,"parameterNumber":2,"parameterNumberName":"U-component_of_WINDS"},"data":[0,0,0,0,0,0,0,0,0,0,0,0,0,0,0,0,0,0,0,0,0,0,0,0,0,0,0,0,0,0,0,0,0,0,0,0,0,0,0,0,0,0,0,0,0,0,0,0,0,0,0,0,0,0,0,0,0,0,-0.2251,-0.2251,0,-0.231,-0.231,-0.2311,-0.2355,-0.2356,-0.2356,-0.2356,-0.2417,-0.2418,-0.2419,0,0,0,0,0,0,0,0,0,0,0,0,0,-0.2175,-0.2176,-0.2251,-0.2251,-0.2252,-0.2309,-0.231,-0.2311,-0.2355,-0.2356,-0.2356,-0.2356,-0.2417,-0.2418,-0.2419,0,0,0,0,0,0,0,0,0,0,0,0,0,-0.2218,-0.2177,-0.2251,-0.2281,-0.2284,-0.2309,-0.231,-0.2311,-0.2355,-0.2356,-0.2356,-0.2357,-0.2416,-0.2418,-0.242,-0.2419,0,0,-0.2425,-0.2426,0,0,0,0,0,0,0,0,-0.2216,-0.2221,-0.2276,-0.2279,-0.2283,-0.2326,-0.2306,-0.2347,-0.2355,-0.2328,-0.2356,-0.2357,-0.2386,-0.239,-0.24,-0.2422,-0.2425,-0.2426,-0.2427,-0.2427,-0.2428,0,0,0,0,0,0,0,-0.2213,-0.2219,-0.2274,-0.2277,-0.2281,-0.2291,-0.2298,-0.2314,-0.2353,-0.2331,-0.2334,-0.234,-0.2388,-0.2398,-0.2402,-0.2426,-0.2425,-0.2427,-0.2428,-0.2429,-0.2447,-0.2446,0,0,0,0,0,0,-0.2205,-0.2216,-0.2272,-0.2276,-0.225,-0.2292,-0.23,-0.2311,-0.2353,-0.236,-0.234,-0.2342,-0.2395,-0.24,-0.2404,-0.2404,-0.2427,-0.2429,-0.243,-0.2448,-0.2447,-0.2446,0,0,0,0,0,0,-0.2203,-0.221,-0.227,-0.2247,-0.2255,-0.2293,-0.2305,-0.2312,-0.2322,-0.236,-0.2367,-0.2343,-0.2395,-0.2402,-0.2414,-0.2407,-0.243,-0.2432,-0.2448,-0.2447,-0.2446,-0.2406,0,0,0,0,0,0,-0.2201,-0.2209,-0.2209,-0.2246,-0.2256,-0.2279,-0.2305,-0.2313,-0.2325,-0.2329,-0.2365,-0.2371,-0.2396,-0.2411,-0.2416,-0.241,-0.2433,-0.2449,-0.2448,-0.2447,-0.2408,-0.2404,-0.24,0,0,0,0,0,-0.2198,-0.2196,-0.2209,-0.2216,-0.2258,-0.2279,-0.2284,-0.2313,-0.2325,-0.2325,-0.2349,-0.237,-0.2407,-0.2412,-0.2418,-0.2413,-0.245,-0.2448,-0.2447,-0.241,-0.2404,-0.24,0,0,0,0,0,0,-0.2159,-0.2202,-0.2217,-0.2227,-0.2249,-0.2286,-0.2288,-0.2307,-0.2326,-0.2329,-0.2364,-0.2372,-0.238,-0.2398,-0.2403,-0.2413,-0.2431,-0.2431,-0.2401,-0.2396,-0.2392,-0.2387,-0.2435,0,0,0,0,0,-0.2151,-0.2164,-0.2202,-0.2207,-0.2217,-0.225,-0.2261,-0.2281,-0.2305,-0.2314,-0.2339,-0.2361,-0.2378,-0.2388,-0.2406,-0.2411,-0.2418,-0.241,-0.2405,-0.2402,-0.2401,-0.2402,-0.2398,-0.2441,-0.2441,-0.2441,0,0,-0.2136,-0.2161,-0.2168,-0.22,-0.2219,-0.2231,-0.2258,-0.2271,-0.228,-0.2316,-0.2329,-0.2348,-0.2375,-0.2383,-0.2388,-0.2398,-0.239,-0.24,-0.2397,-0.2398,-0.24,-0.2396,-0.2393,-0.244,-0.2441,-0.2441,0,0,-0.2114,-0.2135,-0.2141,-0.2159,-0.2187,-0.2209,-0.221,-0.2244,-0.2257,-0.2271,-0.2298,-0.2309,-0.2337,-0.2355,-0.2367,-0.2348,-0.2368,-0.2353,-0.2332,-0.2333,-0.2329,-0.2326,-0.2318,-0.2314,-0.2352,-0.2352,-0.2352,0,-0.2091,-0.2111,-0.2141,-0.2151,-0.2164,-0.2196,-0.2201,-0.2218,-0.225,-0.2258,-0.2268,-0.2303,-0.2324,-0.2335,-0.233,-0.234,-0.2341,-0.2349,-0.2327,-0.2325,-0.2323,-0.2315,-0.2311,-0.235,-0.235,-0.2351,-0.2351,0,-0.2081,-0.2094,-0.2095,-0.2124,-0.2137,-0.2145,-0.2175,-0.2184,-0.2202,-0.2222,-0.2234,-0.226,-0.2282,-0.2286,-0.2305,-0.2299,-0.2304,-0.2321,-0.234,-0.2316,-0.2309,-0.2306,-0.2347,-0.2348,-0.2349,-0.2349,0,0,-0.2037,-0.2081,-0.208,-0.2093,-0.2125,-0.2136,-0.2144,-0.2164,-0.217,-0.2191,-0.2198,-0.222,-0.2234,-0.2248,-0.2269,-0.227,-0.2251,-0.2286,-0.2287,-0.2277,-0.2243,-0.223,-0.2226,-0.2264,-0.2264,-0.2263,-0.224,0,-0.2019,-0.2035,-0.2061,-0.2068,-0.208,-0.2109,-0.2116,-0.2136,-0.2155,-0.2166,-0.2187,-0.2201,-0.222,-0.2228,-0.2231,-0.2252,-0.2244,-0.2255,-0.2269,-0.2269,-0.226,-0.2223,-0.2209,-0.2186,-0.2238,-0.2238,-0.2237,0,-0.2,-0.2017,-0.2026,-0.2054,-0.206,-0.2066,-0.2085,-0.2097,-0.2119,-0.2132,-0.2146,-0.2168,-0.2177,-0.2194,-0.2206,-0.2212,-0.222,-0.2231,-0.2231,-0.2232,-0.2251,-0.2221,-0.218,-0.2176,-0.2234,-0.2234,-0.2234,0,-0.1965,-0.199,-0.1998,-0.2008,-0.2042,-0.2045,-0.2059,-0.2082,-0.2092,-0.2109,-0.2116,-0.2134,-0.2143,-0.2156,-0.2182,-0.2192,-0.2189,-0.221,-0.2199,-0.2199,-0.2197,-0.2196,-0.2154,-0.2204,-0.2204,-0.2204,-0.2204,0,-0.1941,-0.1944,-0.1982,-0.1986,-0.199,-0.202,-0.2022,-0.204,-0.2059,-0.2067,-0.2094,-0.21,-0.2134,-0.2144,-0.2164,-0.2169,-0.2174,-0.2184,-0.2189,-0.2181,-0.2179,-0.2185,-0.2187,-0.2203,-0.2203,-0.2204,-0.2204,0,-0.1902,-0.1928,-0.1937,-0.1968,-0.1976,-0.1977,-0.2003,-0.2008,-0.2027,-0.2036,-0.204,-0.207,-0.2083,-0.2109,-0.213,-0.2143,-0.2143,-0.2153,-0.2135,-0.2138,-0.2125,-0.2125,-0.2084,-0.2079,-0.2133,-0.2133,-0.2133,0,-0.1885,-0.1888,-0.1918,-0.1925,-0.1938,-0.1948,-0.1958,-0.1986,-0.1995,-0.2019,-0.202,-0.2035,-0.2048,-0.2066,-0.209,-0.2105,-0.2115,-0.2099,-0.2117,-0.2108,-0.2112,-0.2111,-0.211,-0.2095,-0.2094,-0.2094,-0.2093,0,-0.1851,-0.1863,-0.1875,-0.1891,-0.1901,-0.1916,-0.1931,-0.1935,-0.1967,-0.1975,-0.1988,-0.1997,-0.2017,-0.203,-0.2048,-0.2063,-0.2082,-0.2087,-0.2085,-0.2076,-0.2064,-0.2068,-0.2122,-0.2088,-0.2088,-0.2089,-0.2089,-0.2089,-0.1821,-0.1824,-0.1845,-0.1857,-0.1871,-0.1885,-0.189,-0.1909,-0.192,-0.1937,-0.1953,-0.1964,-0.1984,-0.201,-0.2022,-0.203,-0.204,-0.2038,-0.2037,-0.2036,-0.2031,-0.2064,-0.2034,-0.2034,-0.2034,-0.2034,-0.2035,0,-0.1787,-0.1801,-0.1812,-0.1832,-0.1841,-0.1858,-0.1875,-0.1881,-0.189,-0.1907,-0.1918,-0.1932,-0.1944,-0.1967,-0.1982,-0.1983,-0.1992,-0.1986,-0.1985,-0.1988,-0.2022,-0.2022,-0.1978,-0.1978,-0.1978,-0.1978,-0.1978,-0.1978,-0.177,-0.1775,-0.1788,-0.1799,-0.1814,-0.1824,-0.1832,-0.1843,-0.1856,-0.1869,-0.1879,-0.1894,-0.1913,-0.1928,-0.194,-0.1946,-0.1949,-0.1939,-0.1948,-0.198,-0.1986,-0.1991,-0.199,-0.194,-0.194,-0.1913,-0.1912,-0.1912]},{"header":{"parameterUnit":"m.s-1","parameterCategory":1,"la1":30.2991,"la2":30.254,"lo1":-89.0895,"lo2":-89.0444,"dy":0.0017,"dx":0.0017,"nx":28,"ny":28,"refTime":"2025-09-07T09:00:00:Z","depth":0,"parameterNumber":3,"parameterNumberName":"V-component_of_WINDS"},"data":[0,0,0,0,0,0,0,0,0,0,0,0,0,0,0,0,0,0,0,0,0,0,0,0,0,0,0,0,0,0,0,0,0,0,0,0,0,0,0,0,0,0,0,0,0,0,0,0,0,0,0,0,0,0,0,0,0,0,-4.1072,-4.1073,0,-4.1162,-4.1163,-4.1164,-4.1198,-4.1198,-4.1197,-4.1197,-4.1281,-4.1283,-4.1286,0,0,0,0,0,0,0,0,0,0,0,0,0,-4.0919,-4.0922,-4.1072,-4.1073,-4.1074,-4.1162,-4.1163,-4.1164,-4.1198,-4.1198,-4.1197,-4.1197,-4.128,-4.1283,-4.1286,0,0,0,0,0,0,0,0,0,0,0,0,0,-4.0995,-4.0923,-4.1072,-4.1102,-4.1105,-4.1162,-4.1163,-4.1165,-4.1198,-4.1198,-4.1197,-4.1197,-4.1279,-4.1283,-4.1286,-4.1317,0,0,-4.1298,-4.1299,0,0,0,0,0,0,0,0,-4.0991,-4.1,-4.1096,-4.11,-4.1104,-4.1169,-4.114,-4.1215,-4.1198,-4.1162,-4.1197,-4.1197,-4.1243,-4.125,-4.1267,-4.1321,-4.1324,-4.1298,-4.13,-4.1302,-4.1303,0,0,0,0,0,0,0,-4.0985,-4.0997,-4.1107,-4.1097,-4.1102,-4.1107,-4.1118,-4.1154,-4.1203,-4.1166,-4.1168,-4.1179,-4.1245,-4.1264,-4.1269,-4.1325,-4.1298,-4.1301,-4.1303,-4.1305,-4.1406,-4.1406,0,0,0,0,0,0,-4.0976,-4.0992,-4.1104,-4.111,-4.1045,-4.1111,-4.1122,-4.1148,-4.1203,-4.1212,-4.1179,-4.118,-4.1257,-4.1265,-4.1272,-4.1311,-4.1302,-4.1305,-4.1307,-4.1405,-4.1406,-4.1406,0,0,0,0,0,0,-4.0973,-4.0986,-4.1101,-4.1052,-4.1067,-4.1114,-4.1142,-4.115,-4.1169,-4.1214,-4.1222,-4.119,-4.1257,-4.1267,-4.1306,-4.1314,-4.1307,-4.131,-4.1405,-4.1405,-4.1406,-4.1388,0,0,0,0,0,0,-4.0969,-4.0985,-4.0999,-4.1052,-4.107,-4.1135,-4.1143,-4.1152,-4.1176,-4.1178,-4.1226,-4.1233,-4.1258,-4.13,-4.1309,-4.1319,-4.1313,-4.1404,-4.1405,-4.1406,-4.1388,-4.1388,-4.1388,0,0,0,0,0,-4.0963,-4.0989,-4.1,-4.1013,-4.1089,-4.1136,-4.1145,-4.1176,-4.1177,-4.119,-4.1218,-4.1232,-4.1312,-4.1304,-4.1314,-4.1326,-4.1404,-4.1405,-4.1406,-4.1388,-4.1388,-4.1388,0,0,0,0,0,0,-4.0933,-4.0997,-4.1009,-4.1054,-4.109,-4.1142,-4.116,-4.1175,-4.1209,-4.1209,-4.1243,-4.1253,-4.1288,-4.1311,-4.13,-4.1357,-4.1358,-4.1362,-4.1341,-4.1342,-4.1342,-4.1335,-4.1316,0,0,0,0,0,-4.0933,-4.0968,-4.102,-4.1055,-4.1072,-4.1113,-4.1134,-4.1155,-4.1191,-4.1206,-4.1237,-4.127,-4.1303,-4.1323,-4.1356,-4.1391,-4.1401,-4.1404,-4.1404,-4.1404,-4.1406,-4.1425,-4.1426,-4.141,-4.141,-4.141,0,0,-4.093,-4.0969,-4.0989,-4.105,-4.108,-4.1113,-4.1125,-4.116,-4.1184,-4.121,-4.1249,-4.1273,-4.1311,-4.1348,-4.1366,-4.1368,-4.1413,-4.1405,-4.1405,-4.1407,-4.1426,-4.1428,-4.1429,-4.1411,-4.141,-4.141,0,0,-4.0944,-4.0977,-4.101,-4.1039,-4.1086,-4.1112,-4.1119,-4.1169,-4.1187,-4.1227,-4.1247,-4.1274,-4.1329,-4.1356,-4.1376,-4.1397,-4.141,-4.1407,-4.1407,-4.1425,-4.1426,-4.1427,-4.1434,-4.1436,-4.1409,-4.1409,-4.1409,0,-4.0934,-4.0989,-4.1023,-4.1057,-4.1082,-4.1109,-4.114,-4.1166,-4.1219,-4.1234,-4.1236,-4.1306,-4.1334,-4.1376,-4.1382,-4.1398,-4.1405,-4.1402,-4.1423,-4.1425,-4.1427,-4.1433,-4.1436,-4.1408,-4.1408,-4.1408,-4.1408,0,-4.0974,-4.1011,-4.103,-4.1084,-4.111,-4.1142,-4.1178,-4.1201,-4.1218,-4.1243,-4.1282,-4.1316,-4.1355,-4.1367,-4.1383,-4.1411,-4.1411,-4.1417,-4.142,-4.1427,-4.1434,-4.1436,-4.1407,-4.1407,-4.1407,-4.1408,0,0,-4.0972,-4.1044,-4.105,-4.1074,-4.1126,-4.1154,-4.1185,-4.1226,-4.1244,-4.1278,-4.1304,-4.135,-4.1357,-4.138,-4.1399,-4.1415,-4.1427,-4.1419,-4.1421,-4.1419,-4.1458,-4.1453,-4.1456,-4.1436,-4.1437,-4.1437,-4.1455,0,-4.0991,-4.1054,-4.1084,-4.1131,-4.1164,-4.119,-4.1217,-4.125,-4.1273,-4.1302,-4.1327,-4.1359,-4.1366,-4.138,-4.1396,-4.1422,-4.1436,-4.1421,-4.1458,-4.1459,-4.1448,-4.1459,-4.1454,-4.1469,-4.1458,-4.1458,-4.1459,0,-4.1023,-4.1061,-4.1111,-4.1159,-4.1174,-4.1198,-4.1237,-4.1265,-4.1301,-4.1317,-4.1343,-4.1362,-4.1393,-4.1392,-4.1434,-4.1423,-4.144,-4.1454,-4.1456,-4.146,-4.1459,-4.1463,-4.1475,-4.1477,-4.1463,-4.1463,-4.1462,0,-4.1016,-4.1078,-4.1117,-4.1136,-4.1192,-4.1209,-4.1232,-4.1269,-4.1291,-4.1323,-4.1338,-4.1372,-4.1391,-4.1416,-4.1443,-4.144,-4.1481,-4.1483,-4.1493,-4.1492,-4.1501,-4.15,-4.1515,-4.1511,-4.1511,-4.1511,-4.1511,0,-4.1034,-4.1064,-4.1114,-4.1138,-4.1171,-4.1204,-4.1235,-4.126,-4.1292,-4.1318,-4.1341,-4.1364,-4.1398,-4.1425,-4.1445,-4.1475,-4.1484,-4.1495,-4.15,-4.1494,-4.1492,-4.1505,-4.1504,-4.1512,-4.1512,-4.1511,-4.1511,0,-4.1032,-4.1067,-4.111,-4.116,-4.1173,-4.1195,-4.1236,-4.1258,-4.1283,-4.1316,-4.1325,-4.1362,-4.1395,-4.1424,-4.1466,-4.148,-4.151,-4.1517,-4.1499,-4.1502,-4.151,-4.1509,-4.1534,-4.1538,-4.1531,-4.1531,-4.1531,0,-4.1042,-4.1066,-4.1118,-4.1139,-4.1163,-4.1196,-4.1219,-4.1252,-4.1274,-4.1317,-4.1333,-4.1368,-4.1397,-4.1447,-4.1476,-4.1508,-4.1515,-4.1522,-4.152,-4.1512,-4.1515,-4.1513,-4.1515,-4.1521,-4.1521,-4.1521,-4.1521,0,-4.1055,-4.1071,-4.1105,-4.1145,-4.1173,-4.1205,-4.1237,-4.1252,-4.129,-4.1313,-4.1348,-4.1371,-4.1415,-4.1449,-4.1484,-4.1504,-4.1518,-4.1522,-4.1526,-4.1519,-4.1507,-4.1513,-4.1498,-4.1521,-4.1521,-4.1521,-4.1521,-4.1521,-4.1058,-4.108,-4.1121,-4.1158,-4.1186,-4.1216,-4.1239,-4.1267,-4.1298,-4.1338,-4.1354,-4.1389,-4.1422,-4.1472,-4.1492,-4.1518,-4.152,-4.1526,-4.1527,-4.1528,-4.1527,-4.1503,-4.1524,-4.1524,-4.1524,-4.1524,-4.1524,0,-4.1072,-4.1099,-4.1133,-4.1179,-4.1207,-4.1221,-4.1257,-4.1278,-4.131,-4.1341,-4.1371,-4.1409,-4.1441,-4.1473,-4.1506,-4.152,-4.1527,-4.1528,-4.1527,-4.1531,-4.1523,-4.1516,-4.1521,-4.1521,-4.1521,-4.1521,-4.1521,-4.1521,-4.1082,-4.112,-4.1141,-4.1192,-4.1218,-4.1255,-4.1274,-4.1301,-4.1326,-4.1369,-4.1397,-4.1419,-4.1449,-4.1484,-4.1513,-4.1521,-4.1532,-4.153,-4.154,-4.1532,-4.1532,-4.1532,-4.1526,-4.1533,-4.1533,-4.1546,-4.1546,-4.1546]}]]